Marrakech, Morocco

12:23 PM WET on June 24, 2017 (GMT +0000)
Marrakech

Weather History for GMMX - June, 2014

Change the Weather History Date:

Friday, June 20, 2014

  Actual Average Record
Temperature  
Mean Temperature 73 °F -  
Max Temperature 84 °F 94 °F 107 °F (2005)
Min Temperature 62 °F 65 °F 57 °F (2013)
Cooling Degree Days 8    
Growing Degree Days 23 (Base 50)    
Moisture  
Dew Point 54 °F    
Average Humidity 55    
Maximum Humidity 77    
Minimum Humidity 20    
Precipitation  
Precipitation 0.00 in 0.00 in - ()
Sea Level Pressure  
Sea Level Pressure 30.03 in    
Wind  
Wind Speed 7 mph ()    
Max Wind Speed 20 mph    
Max Gust Speed -    
Visibility 6.2 miles    
Events      
Averages and records for this station are not official NWS values.
T = Trace of Precipitation, MM = Missing Value Source: Averaged Metar Reports

Daily Weather History Graph

Daily Weather History Graph

Search for Another Location

Airport or City:

Trip Planner

Search our weather history database for the weather conditions in past years. The results will help you decide how hot, cold, wet, or windy it might be!

Date:

Astronomy

Jun. 20, 2014 Rise Set
Actual Time 6:27 AM WEST 8:40 PM WEST
Civil Twilight 5:59 AM WEST 9:08 PM WEST
Nautical Twilight 5:24 AM WEST 9:42 PM WEST
Astronomical Twilight 4:47 AM WEST 10:19 PM WEST
Moon 1:36 AM WEST (6/20) 2:19 PM WEST (6/20)
Length of Visible Light 15h 09m
Length of Day
14h 12m
Last Quarter, 43% of the Moon is Illuminated
Jun 20
Last Quarter
Jun 27
New
Jul 5
First Quarter
Jul 12
Full
Jul 19
Last Quarter

Hourly Weather History & Observations

Time (WEST) Temp. Dew Point Humidity Pressure Visibility Wind Dir Wind Speed Gust Speed Precip Events Conditions
12:00 AM 71.6 °F 57.2 °F 60% 30.06 in 6.2 mi NNW 8.1 mph - N/A   Mostly Cloudy
12:30 AM 69.8 °F 57.2 °F 64% 30.06 in 6.2 mi WNW 10.4 mph - N/A   Mostly Cloudy
1:00 AM 67 °F 56 °F 58% 30.02 in 6 mi West 13.8 mph - -   Mostly Cloudy
1:00 AM 66.2 °F 55.4 °F 68% 30.06 in 6.2 mi West 13.8 mph - N/A   Mostly Cloudy
1:30 AM 66.2 °F 55.4 °F 68% 30.06 in 6.2 mi WSW 11.5 mph - N/A   Mostly Cloudy
2:00 AM 64.4 °F 55.4 °F 73% 30.04 in 6.2 mi WSW 9.2 mph - N/A   Mostly Cloudy
2:30 AM 62.6 °F 55.4 °F 77% 30.04 in 6.2 mi West 9.2 mph - N/A   Mostly Cloudy
3:00 AM 62.6 °F 55.4 °F 77% 30.04 in 6.2 mi West 10.4 mph - N/A   Unknown
3:30 AM 62.6 °F 55.4 °F 77% 30.04 in 6.2 mi West 8.1 mph - N/A   Mostly Cloudy
4:00 AM 63 °F 55 °F 69% 30.01 in 6 mi West 5.8 mph - -   Mostly Cloudy
4:00 AM 62.6 °F 55.4 °F 77% 30.04 in 6.2 mi West 5.8 mph - N/A   Mostly Cloudy
4:30 AM 64.4 °F 55.4 °F 73% 30.04 in 6.2 mi WSW 5.8 mph - N/A   Mostly Cloudy
5:00 AM 62.6 °F 55.4 °F 77% 30.04 in 6.2 mi WSW 6.9 mph - N/A   Mostly Cloudy
5:30 AM 62.6 °F 55.4 °F 77% 30.04 in 6.2 mi WSW 5.8 mph - N/A   Mostly Cloudy
6:00 AM 62.6 °F 55.4 °F 77% 30.04 in - WSW 5.8 mph - N/A   Clear
6:30 AM 62.6 °F 55.4 °F 77% 30.04 in - WSW 5.8 mph - N/A   Clear
7:00 AM 63 °F 55 °F 69% 30.01 in 6 mi West 6.9 mph - -   Overcast
7:00 AM 62.6 °F 55.4 °F 77% 30.04 in 6.2 mi WSW 6.9 mph - N/A   Overcast
7:30 AM 62.6 °F 55.4 °F 77% 30.04 in 6.2 mi WSW 6.9 mph - N/A   Overcast
8:00 AM 62.6 °F 55.4 °F 77% 30.04 in 6.2 mi WSW 5.8 mph - N/A   Overcast
8:30 AM 64.4 °F 55.4 °F 73% 30.06 in 6.2 mi WSW 5.8 mph - N/A   Overcast
9:00 AM 64.4 °F 55.4 °F 73% 30.06 in 6.2 mi WSW 3.5 mph - N/A   Overcast
9:30 AM 64.4 °F 55.4 °F 73% 30.06 in 6.2 mi WSW 3.5 mph - N/A   Overcast
10:00 AM 67 °F 56 °F 60% 30.03 in 6 mi West 2.3 mph - -   Overcast
10:00 AM 66.2 °F 57.2 °F 73% 30.06 in 6.2 mi Variable 2.3 mph - N/A   Overcast
10:30 AM 68.0 °F 57.2 °F 68% 30.06 in 6.2 mi Variable 3.5 mph - N/A   Mostly Cloudy
11:00 AM 71.6 °F 57.2 °F 60% 30.06 in 6.2 mi Variable 3.5 mph - N/A   Scattered Clouds
11:30 AM 71.6 °F 57.2 °F 60% 30.06 in 6.2 mi Variable 4.6 mph - N/A   Scattered Clouds
12:00 PM 71.6 °F 57.2 °F 60% 30.06 in 6.2 mi Variable 3.5 mph - N/A   Scattered Clouds
12:30 PM 73.4 °F 57.2 °F 57% 30.06 in 6.2 mi Variable 3.5 mph - N/A   Scattered Clouds
1:00 PM 76 °F 56 °F 40% 29.99 in 6 mi North 4.6 mph - -   Partly Cloudy
1:00 PM 75.2 °F 55.4 °F 50% 30.04 in 6.2 mi NNE 4.6 mph - N/A   Partly Cloudy
1:30 PM 77.0 °F 55.4 °F 47% 30.04 in 6.2 mi Variable 3.5 mph - N/A   Partly Cloudy
2:00 PM 78.8 °F 53.6 °F 42% 30.04 in 6.2 mi Variable 5.8 mph - N/A   Partly Cloudy
2:30 PM 78.8 °F 53.6 °F 42% 30.01 in 6.2 mi SW 6.9 mph - N/A   Partly Cloudy
3:00 PM 80.6 °F 51.8 °F 37% 30.01 in 6.2 mi Variable 8.1 mph - N/A   Partly Cloudy
3:30 PM 82.4 °F 51.8 °F 35% 30.01 in 6.2 mi West 9.2 mph - N/A   Partly Cloudy
4:00 PM 82 °F 51 °F 24% 29.94 in 6 mi West 9.2 mph - -   Partly Cloudy
4:00 PM 82.4 °F 51.8 °F 35% 30.01 in 6.2 mi West 10.4 mph - N/A   Partly Cloudy
4:30 PM 82.4 °F 50.0 °F 32% 30.01 in 6.2 mi West 6.9 mph - N/A   Partly Cloudy
5:00 PM 82.4 °F 50.0 °F 32% 30.01 in 6.2 mi WSW 8.1 mph - N/A   Partly Cloudy
5:30 PM 84.2 °F 50.0 °F 30% 30.01 in 6.2 mi WNW 9.2 mph - N/A   Partly Cloudy
6:00 PM 84.2 °F 48.2 °F 29% 30.01 in 6.2 mi West 10.4 mph - N/A   Partly Cloudy
6:30 PM 84.2 °F 48.2 °F 29% 30.01 in 6.2 mi West 9.2 mph - N/A   Partly Cloudy
7:00 PM 83 °F 49 °F 20% 29.92 in 6 mi West 10.4 mph - -   Scattered Clouds
7:00 PM 84.2 °F 48.2 °F 29% 30.01 in 6.2 mi West 10.4 mph - N/A   Partly Cloudy
7:30 PM 82.4 °F 48.2 °F 30% 30.01 in 6.2 mi WNW 5.8 mph - N/A   Partly Cloudy
8:00 PM 82.4 °F 51.8 °F 35% 30.01 in 6.2 mi WSW 9.2 mph - N/A   Partly Cloudy
8:30 PM 78.8 °F 51.8 °F 39% 30.01 in - West 19.6 mph - N/A   Clear
9:00 PM 75.2 °F 51.8 °F 44% 30.04 in - WNW 15.0 mph - N/A   Clear
9:30 PM 73.4 °F 51.8 °F 47% 30.04 in - WNW 13.8 mph - N/A   Clear
10:00 PM 73 °F 52 °F 36% 30.00 in 6 mi NW 11.5 mph - -  
10:00 PM 73.4 °F 51.8 °F 47% 30.06 in - NW 12.7 mph - N/A   Clear
10:30 PM 71.6 °F 51.8 °F 50% 30.06 in - NW 8.1 mph - N/A   Clear
11:00 PM 71.6 °F 51.8 °F 50% 30.09 in - NW 6.9 mph - N/A   Clear
11:30 PM 69.8 °F 51.8 °F 53% 30.09 in - West 6.9 mph - N/A   Clear